カタログに戻る

FENGYUN 1C DEB

運用中PO
NORAD 30971·DEBRIS·🇨🇳 China

打ち上げ May 10, 1999 から Taiyuan Satellite Launch Center

Loading…

次のパス (今後24時間)

TLE

最新Source: Space-Track

元期: Sep 14, 2026, 17:16 UTC

1 30971U 99025BBM 26257.72011376  .00002230  00000-0  28819-3 0  9992
2 30971  99.1803 342.7338 0159493  58.0535  91.0788 14.73671139 37789

AllMySatでFENGYUN 1C DEBをリアルタイム追跡

Download on the App Store